ETD3KP OMAA-OMDB

Flight info

Callsign ETD3KP
Flight time 0h 38m
Altitude 9000
Route LORID
Aircraft A320/M-SDE3FGHIRWY/LB1

Departure

Time 2026-05-05 16:22
Airport Zayed International Airport (OMAA)

Arrival

Time 2026-05-05 17:00
Airport Dubai International Airport (OMDB)
Time Latitude Longitude Altitude Speed Heading
2026-05-05 16:01 24.44755 54.64230 62 ft 0 kts 84°
2026-05-05 16:12 24.44752 54.64209 61 ft 3 kts 84°
2026-05-05 16:13 24.44748 54.64136 62 ft 3 kts 111°
2026-05-05 16:13 24.44760 54.64116 58 ft 3 kts 151°
2026-05-05 16:13 24.44782 54.64108 53 ft 3 kts 173°
2026-05-05 16:14 24.44815 54.64101 53 ft 0 kts 143°
2026-05-05 16:15 24.44810 54.64105 55 ft 5 kts 146°
2026-05-05 16:16 24.44657 54.64159 62 ft 14 kts 163°
2026-05-05 16:16 24.44428 54.64260 58 ft 26 kts 152°
2026-05-05 16:17 24.44119 54.64667 61 ft 41 kts 127°
2026-05-05 16:17 24.43972 54.64754 58 ft 21 kts 211°
2026-05-05 16:18 24.43777 54.64770 58 ft 17 kts 129°
2026-05-05 16:18 24.43694 54.64881 59 ft 20 kts 129°
2026-05-05 16:18 24.43503 54.65148 55 ft 24 kts 128°
2026-05-05 16:19 24.43394 54.65302 58 ft 27 kts 127°
2026-05-05 16:19 24.43276 54.65470 55 ft 29 kts 128°
2026-05-05 16:19 24.43066 54.65766 51 ft 28 kts 127°
2026-05-05 16:20 24.42820 54.66112 55 ft 22 kts 127°
2026-05-05 16:20 24.42654 54.66151 53 ft 15 kts 223°
2026-05-05 16:21 24.42836 54.65776 58 ft 79 kts 308°
2026-05-05 16:22 24.44644 54.63212 816 ft 153 kts 306°
2026-05-05 16:22 24.45866 54.61389 1837 ft 151 kts 310°
2026-05-05 16:23 24.47330 54.59390 2076 ft 188 kts 311°
2026-05-05 16:23 24.48207 54.58182 2248 ft 211 kts 310°
2026-05-05 16:23 24.50179 54.55431 2909 ft 245 kts 309°
2026-05-05 16:24 24.51227 54.53954 3522 ft 246 kts 310°
2026-05-05 16:24 24.52286 54.52460 4323 ft 249 kts 310°
2026-05-05 16:24 24.54453 54.49403 5343 ft 255 kts 309°
2026-05-05 16:25 24.55532 54.47875 6122 ft 256 kts 309°
2026-05-05 16:25 24.57733 54.44759 7497 ft 261 kts 309°
2026-05-05 16:25 24.58903 54.43212 8192 ft 263 kts 320°
2026-05-05 16:26 24.62296 54.42089 8980 ft 263 kts 12°
2026-05-05 16:26 24.65713 54.44024 9022 ft 287 kts 31°
2026-05-05 16:27 24.67418 54.45171 9026 ft 287 kts 31°
2026-05-05 16:27 24.69116 54.46310 9025 ft 287 kts 31°
2026-05-05 16:27 24.70827 54.47452 9034 ft 288 kts 31°
2026-05-05 16:27 24.72483 54.48694 9030 ft 288 kts 41°
2026-05-05 16:28 24.73796 54.50354 9031 ft 288 kts 58°
2026-05-05 16:28 24.74689 54.52329 9036 ft 290 kts 66°
2026-05-05 16:28 24.75504 54.54373 9034 ft 291 kts 66°
2026-05-05 16:28 24.76322 54.56407 9040 ft 291 kts 66°
2026-05-05 16:29 24.77144 54.58450 9040 ft 292 kts 66°
2026-05-05 16:29 24.77954 54.60467 9046 ft 292 kts 66°
2026-05-05 16:29 24.78784 54.62535 9047 ft 292 kts 66°
2026-05-05 16:29 24.79792 54.64467 9049 ft 292 kts 49°
2026-05-05 16:30 24.81346 54.65836 9050 ft 292 kts 27°
2026-05-05 16:30 24.83299 54.66451 9048 ft 292 kts
2026-05-05 16:30 24.85317 54.66293 9050 ft 293 kts 353°
2026-05-05 16:30 24.87336 54.65987 9052 ft 294 kts 353°
2026-05-05 16:31 24.89367 54.65680 9056 ft 295 kts 353°
2026-05-05 16:31 24.91408 54.65465 9052 ft 294 kts
2026-05-05 16:31 24.93418 54.65816 9056 ft 293 kts 19°
2026-05-05 16:31 24.95253 54.66774 9059 ft 292 kts 34°
2026-05-05 16:32 24.96912 54.68067 9062 ft 292 kts 36°
2026-05-05 16:32 24.98565 54.69364 9058 ft 292 kts 36°
2026-05-05 16:32 25.00225 54.70665 9067 ft 293 kts 36°
2026-05-05 16:32 25.01883 54.71959 9068 ft 293 kts 36°
2026-05-05 16:33 25.03548 54.73258 9064 ft 293 kts 36°
2026-05-05 16:33 25.05212 54.74558 9070 ft 293 kts 36°
2026-05-05 16:33 25.06872 54.75856 9067 ft 293 kts 36°
2026-05-05 16:33 25.08540 54.77162 9053 ft 294 kts 36°
2026-05-05 16:34 25.10205 54.78470 9060 ft 295 kts 36°
2026-05-05 16:34 25.11876 54.79785 9061 ft 295 kts 36°
2026-05-05 16:34 25.13550 54.81100 9064 ft 295 kts 36°
2026-05-05 16:34 25.15226 54.82415 9065 ft 295 kts 36°
2026-05-05 16:35 25.16860 54.83791 9064 ft 295 kts 39°
2026-05-05 16:35 25.18437 54.85235 9069 ft 295 kts 40°
2026-05-05 16:35 25.19996 54.86713 9060 ft 295 kts 41°
2026-05-05 16:35 25.21559 54.88204 9067 ft 295 kts 41°
2026-05-05 16:36 25.23104 54.89671 9068 ft 295 kts 41°
2026-05-05 16:36 25.24666 54.91145 9067 ft 295 kts 41°
2026-05-05 16:36 25.26211 54.92597 9068 ft 295 kts 40°
2026-05-05 16:36 25.27763 54.94084 9063 ft 295 kts 45°
2026-05-05 16:37 25.29022 54.95864 9067 ft 294 kts 60°
2026-05-05 16:37 25.29924 54.97893 9069 ft 294 kts 65°
2026-05-05 16:37 25.30796 54.99936 9064 ft 294 kts 65°
2026-05-05 16:37 25.31668 55.01980 9059 ft 294 kts 65°
2026-05-05 16:38 25.32540 55.04031 9062 ft 295 kts 65°
2026-05-05 16:38 25.33420 55.06093 9056 ft 295 kts 64°
2026-05-05 16:38 25.34300 55.08150 9053 ft 296 kts 64°
2026-05-05 16:38 25.35179 55.10198 9051 ft 296 kts 65°
2026-05-05 16:39 25.35870 55.12334 9055 ft 296 kts 78°
2026-05-05 16:39 25.36048 55.14596 9056 ft 295 kts 91°
2026-05-05 16:39 25.35996 55.16807 8926 ft 287 kts 91°
2026-05-05 16:39 25.35947 55.19015 8798 ft 277 kts 91°
2026-05-05 16:40 25.35901 55.21084 8675 ft 272 kts 91°
2026-05-05 16:40 25.35857 55.23152 8552 ft 265 kts 91°
2026-05-05 16:40 25.35815 55.25156 8434 ft 256 kts 91°
2026-05-05 16:40 25.35774 55.27089 8309 ft 249 kts 91°
2026-05-05 16:41 25.35735 55.29002 8135 ft 248 kts 91°
2026-05-05 16:41 25.35695 55.30893 8077 ft 247 kts 91°
2026-05-05 16:41 25.35429 55.32768 8028 ft 247 kts 109°
2026-05-05 16:41 25.34662 55.34463 7942 ft 247 kts 122°
2026-05-05 16:42 25.33757 55.36074 7836 ft 247 kts 122°
2026-05-05 16:42 25.32855 55.37689 7725 ft 246 kts 122°
2026-05-05 16:42 25.31959 55.39298 7632 ft 246 kts 122°
2026-05-05 16:42 25.31058 55.40917 7504 ft 246 kts 122°
2026-05-05 16:43 25.30163 55.42526 7395 ft 246 kts 122°
2026-05-05 16:43 25.29270 55.44130 7287 ft 245 kts 122°
2026-05-05 16:43 25.28379 55.45728 7191 ft 245 kts 122°
2026-05-05 16:43 25.27484 55.47331 7087 ft 245 kts 122°
2026-05-05 16:44 25.26588 55.48936 6976 ft 246 kts 121°
2026-05-05 16:44 25.25695 55.50541 6848 ft 245 kts 121°
2026-05-05 16:44 25.24798 55.52151 6714 ft 245 kts 121°
2026-05-05 16:44 25.23908 55.53750 6585 ft 244 kts 122°
2026-05-05 16:45 25.23025 55.55339 6464 ft 243 kts 121°
2026-05-05 16:45 25.22152 55.56909 6336 ft 242 kts 122°
2026-05-05 16:45 25.21254 55.58518 6208 ft 243 kts 122°
2026-05-05 16:45 25.20385 55.60078 6078 ft 242 kts 121°
2026-05-05 16:46 25.19500 55.61662 5955 ft 241 kts 121°
2026-05-05 16:46 25.18625 55.63234 5831 ft 240 kts 121°
2026-05-05 16:46 25.17749 55.64811 5704 ft 239 kts 121°
2026-05-05 16:46 25.16882 55.66372 5583 ft 238 kts 121°
2026-05-05 16:47 25.16020 55.67917 5458 ft 237 kts 121°
2026-05-05 16:47 25.15153 55.69469 5335 ft 236 kts 121°
2026-05-05 16:47 25.14298 55.71002 5213 ft 235 kts 121°
2026-05-05 16:47 25.13445 55.72533 5094 ft 234 kts 120°
2026-05-05 16:48 25.12591 55.74060 4977 ft 233 kts 121°
2026-05-05 16:48 25.11749 55.75567 4852 ft 225 kts 120°
2026-05-05 16:48 25.10948 55.76996 4753 ft 215 kts 120°
2026-05-05 16:48 25.10181 55.78366 4696 ft 205 kts 120°
2026-05-05 16:49 25.09436 55.79703 4589 ft 206 kts 121°
2026-05-05 16:49 25.08683 55.81052 4465 ft 206 kts 121°
2026-05-05 16:49 25.07929 55.82401 4355 ft 205 kts 121°
2026-05-05 16:49 25.07185 55.83731 4242 ft 204 kts 121°
2026-05-05 16:50 25.06361 55.84999 4124 ft 203 kts 140°
2026-05-05 16:50 25.05072 55.85555 4022 ft 203 kts 179°
2026-05-05 16:50 25.03747 55.85063 3908 ft 205 kts 213°
2026-05-05 16:50 25.02553 55.84183 3786 ft 205 kts 212°
2026-05-05 16:51 25.01343 55.83342 3660 ft 206 kts 216°
2026-05-05 16:51 25.00551 55.82068 3541 ft 207 kts 257°
2026-05-05 16:51 25.00739 55.80512 3427 ft 208 kts 300°
2026-05-05 16:51 25.01565 55.79203 3323 ft 209 kts 305°
2026-05-05 16:52 25.02339 55.77857 3206 ft 208 kts 302°
2026-05-05 16:52 25.03085 55.76484 3088 ft 208 kts 302°
2026-05-05 16:52 25.03822 55.75122 2975 ft 208 kts 302°
2026-05-05 16:52 25.04554 55.73749 2867 ft 208 kts 302°
2026-05-05 16:53 25.05288 55.72370 2759 ft 208 kts 302°
2026-05-05 16:53 25.06047 55.70996 2650 ft 209 kts 303°
2026-05-05 16:53 25.06795 55.69653 2546 ft 210 kts 302°
2026-05-05 16:53 25.07568 55.68269 2431 ft 209 kts 303°
2026-05-05 16:54 25.08334 55.66898 2323 ft 210 kts 302°
2026-05-05 16:54 25.09093 55.65539 2216 ft 209 kts 302°
2026-05-05 16:54 25.09849 55.64182 2120 ft 204 kts 302°
2026-05-05 16:54 25.10590 55.62855 2051 ft 200 kts 303°
2026-05-05 16:55 25.11311 55.61561 2051 ft 198 kts 302°
2026-05-05 16:55 25.12017 55.60296 2045 ft 194 kts 302°
2026-05-05 16:55 25.12720 55.59034 2053 ft 191 kts 303°
2026-05-05 16:55 25.13420 55.57778 2055 ft 192 kts 302°
2026-05-05 16:56 25.14119 55.56524 2046 ft 192 kts 303°
2026-05-05 16:56 25.14820 55.55265 2043 ft 193 kts 302°
2026-05-05 16:56 25.15533 55.53985 2048 ft 192 kts 303°
2026-05-05 16:56 25.16196 55.52793 2033 ft 171 kts 303°
2026-05-05 16:57 25.16789 55.51726 2031 ft 162 kts 304°
2026-05-05 16:57 25.17375 55.50674 2036 ft 160 kts 304°
2026-05-05 16:57 25.17959 55.49625 1980 ft 159 kts 304°
2026-05-05 16:57 25.18533 55.48593 1839 ft 157 kts 305°
2026-05-05 16:58 25.19108 55.47559 1651 ft 155 kts 305°
2026-05-05 16:58 25.19665 55.46557 1473 ft 154 kts 305°
2026-05-05 16:58 25.20220 55.45559 1274 ft 153 kts 304°
2026-05-05 16:58 25.20773 55.44564 1086 ft 152 kts 304°
2026-05-05 16:59 25.21322 55.43577 906 ft 149 kts 305°
2026-05-05 16:59 25.21855 55.42615 724 ft 144 kts 305°
2026-05-05 16:59 25.22373 55.41684 550 ft 141 kts 301°
2026-05-05 16:59 25.22891 55.40751 371 ft 143 kts 303°
2026-05-05 17:00 25.23400 55.39834 183 ft 139 kts 302°
2026-05-05 17:00 25.23903 55.38932 34 ft 130 kts 302°
2026-05-05 17:00 25.24188 55.38419 29 ft 39 kts 300°
2026-05-05 17:00 25.24300 55.38172 29 ft 30 kts 274°
2026-05-05 17:01 25.24258 55.38087 26 ft 0 kts 218°
2026-05-05 17:01 25.24248 55.38079 26 ft 8 kts 212°
2026-05-05 17:01 25.24190 55.38040 40 ft 7 kts 220°
2026-05-05 17:01 25.24169 55.37955 42 ft 17 kts 268°
2026-05-05 17:02 25.24206 55.37826 38 ft 8 kts 297°
2026-05-05 17:02 25.24212 55.37814 41 ft 1 kts 301°
2026-05-05 17:02 25.24225 55.37790 40 ft 7 kts 301°
2026-05-05 17:02 25.24257 55.37727 40 ft 11 kts 285°
2026-05-05 17:03 25.24232 55.37639 39 ft 13 kts 248°
2026-05-05 17:03 25.24215 55.37591 37 ft 0 kts 249°